sat.trackr.live / text

‹ back to catalog

STARLINK-5788

NORAD 57148 · 2023-090AZ

PAYLOAD ACTIVE UNKNOWN

§ Identity

Operator
Country
US
Launch date
2023-06-23
Launch site
AFETR
Launch vehicle
Mass (kg)
RCS (m²)

Purposes: comms

External: N2YO · Heavens-Above · Gunter

§ Orbital elements

Epoch: 2026-05-25T03:40:44.027040Z

Period
94.27 min
Inclination
43.0021°
Eccentricity
0.0001045
Mean motion
15.27575538 rev/d
Perigee alt
482.3 km
Apogee alt
483.8 km
Semi-major
6,861.2 km
B*
1.8905e-5
RAAN
191.8350°
Arg perigee
290.6723°
Mean anomaly
69.4016°
Rev number
16,204

§ Raw data

STARLINK-57881 57148U 23090AZ  26145.15328735  .00000258  00000+0  18905-4 0  99922 57148  43.0021 191.8350 0001045 290.6723  69.4016 15.27575538162040

JSON: /api/v1/satellites/57148 · /tle

For live sub-satellite position, see the globe view (requires WebGL).

§ Visibility from observer

Set your observer location to see the next 7 days of passes ≥ 10°. The values pass through the URL so the page stays shareable.

No JS? Fill the form by hand. The geolocation button needs JavaScript.